KLM685 EHAM-MMMX

Flight info

Callsign KLM685
Flight time N/A
Altitude 34000
Route BERGI3N BERGI L60 PENIL M144 BAGSO DCT BEXET DCT DOGAL/M085F340 DCT 54N020W 54N030W 53N040W 50N050W DCT ELSIR/N0491F340 N398B TUSKY/N0484F360 DCT SSOXS Q167 YAZUU Q97 YURCK/N0488F380 Q97 JEVED DCT DOFFY DCT KNOST M215 MINOW M580 IRDOV UM580 TADET UT154 ENAGA ENAGA3A
Aircraft B78X/H-SDE1E2E3FGHIJ2J3J4J5M1RWXY/LB1D1

Departure

Time 2026-05-05 06:33
Airport Amsterdam Airport Schiphol (EHAM)

Arrival

Time N/A
Airport Mexico City Benito Juárez International Airport (MMMX)
Time Latitude Longitude Altitude Speed Heading
2026-05-05 06:09 52.31272 4.76591 3 ft 0 kts 122°
2026-05-05 06:18 52.31281 4.76568 3 ft 3 kts 122°
2026-05-05 06:18 52.31289 4.76539 6 ft 3 kts 84°
2026-05-05 06:18 52.31285 4.76507 5 ft 3 kts 46°
2026-05-05 06:19 52.31280 4.76498 5 ft 0 kts 38°
2026-05-05 06:25 52.31304 4.76519 3 ft 7 kts 28°
2026-05-05 06:25 52.31347 4.76556 3 ft 7 kts 25°
2026-05-05 06:26 52.31386 4.76586 3 ft 7 kts 27°
2026-05-05 06:26 52.31427 4.76625 3 ft 7 kts 30°
2026-05-05 06:26 52.31465 4.76659 3 ft 7 kts 22°
2026-05-05 06:26 52.31517 4.76663 3 ft 8 kts 346°
2026-05-05 06:27 52.31547 4.76588 3 ft 9 kts 281°
2026-05-05 06:27 52.31543 4.76329 3 ft 14 kts 267°
2026-05-05 06:27 52.31538 4.76162 3 ft 16 kts 267°
2026-05-05 06:28 52.31531 4.75974 3 ft 17 kts 266°
2026-05-05 06:28 52.31525 4.75768 3 ft 19 kts 267°
2026-05-05 06:28 52.31517 4.75547 3 ft 19 kts 266°
2026-05-05 06:28 52.31509 4.75335 3 ft 18 kts 266°
2026-05-05 06:29 52.31502 4.75133 3 ft 17 kts 266°
2026-05-05 06:29 52.31496 4.74943 3 ft 16 kts 267°
2026-05-05 06:29 52.31490 4.74771 3 ft 13 kts 266°
2026-05-05 06:29 52.31523 4.74675 3 ft 8 kts 337°
2026-05-05 06:30 52.31574 4.74666 4 ft 6 kts 358°
2026-05-05 06:30 52.31611 4.74665 5 ft 6 kts 359°
2026-05-05 06:30 52.31652 4.74680 6 ft 7 kts 26°
2026-05-05 06:30 52.31666 4.74736 5 ft 5 kts 80°
2026-05-05 06:31 52.31667 4.74764 5 ft 1 kts 85°
2026-05-05 06:31 52.31668 4.74770 5 ft 0 kts 85°
2026-05-05 06:32 52.31669 4.74785 5 ft 5 kts 84°
2026-05-05 06:32 52.31679 4.75042 -1 ft 52 kts 87°
2026-05-05 06:32 52.31710 4.75980 3 ft 111 kts 86°
2026-05-05 06:33 52.31743 4.76950 1 ft 146 kts 87°
2026-05-05 06:33 52.31804 4.78782 167 ft 173 kts 91°
2026-05-05 06:33 52.31859 4.80842 619 ft 194 kts 85°
2026-05-05 06:33 52.32164 4.82980 1489 ft 195 kts 52°
2026-05-05 06:34 52.33804 4.84114 2304 ft 218 kts 355°
2026-05-05 06:34 52.34843 4.83733 2457 ft 230 kts 352°
2026-05-05 06:34 52.36388 4.84085 2503 ft 228 kts 31°
2026-05-05 06:34 52.37314 4.86042 2969 ft 225 kts 72°
2026-05-05 06:35 52.37622 4.88564 3678 ft 231 kts 67°
2026-05-05 06:35 52.38706 4.90496 4190 ft 243 kts 26°
2026-05-05 06:35 52.40414 4.90939 4760 ft 258 kts 355°
2026-05-05 06:35 52.42153 4.90121 5553 ft 265 kts 329°
2026-05-05 06:36 52.43498 4.88058 6490 ft 268 kts 301°
2026-05-05 06:36 52.44128 4.85176 7360 ft 271 kts 282°
2026-05-05 06:36 52.44447 4.82159 8243 ft 274 kts 279°
2026-05-05 06:36 52.44792 4.79088 9150 ft 275 kts 283°
2026-05-05 06:37 52.45229 4.76013 10044 ft 277 kts 284°
2026-05-05 06:37 52.45683 4.72902 10712 ft 287 kts 283°
2026-05-05 06:37 52.46165 4.69630 11132 ft 303 kts 289°
2026-05-05 06:37 52.47292 4.66629 11593 ft 319 kts 312°
2026-05-05 06:38 52.49158 4.64474 11946 ft 341 kts 334°
2026-05-05 06:38 52.51387 4.62948 12503 ft 353 kts 337°
2026-05-05 06:38 52.53720 4.61512 13208 ft 361 kts 338°
2026-05-05 06:38 52.56056 4.60047 13923 ft 367 kts 336°
2026-05-05 06:39 52.58445 4.58470 14621 ft 372 kts 336°
2026-05-05 06:39 52.60861 4.56871 15322 ft 376 kts 336°
2026-05-05 06:39 52.63310 4.55282 16031 ft 381 kts 336°
2026-05-05 06:39 52.65788 4.53658 16731 ft 384 kts 334°
2026-05-05 06:40 52.67962 4.51387 17405 ft 384 kts 317°
2026-05-05 06:40 52.69755 4.48139 18137 ft 384 kts 303°
2026-05-05 06:40 52.71292 4.44520 18753 ft 387 kts 303°
2026-05-05 06:40 52.72819 4.40834 19344 ft 391 kts 302°
2026-05-05 06:41 52.74340 4.37104 19943 ft 393 kts 299°
2026-05-05 06:41 52.75461 4.32995 20536 ft 394 kts 288°
2026-05-05 06:41 52.76352 4.28701 21093 ft 397 kts 287°
2026-05-05 06:41 52.77224 4.24339 21652 ft 400 kts 287°
2026-05-05 06:42 52.78086 4.19999 22201 ft 404 kts 287°
2026-05-05 06:42 52.78979 4.15574 22754 ft 407 kts 287°
2026-05-05 06:42 52.79882 4.11116 23284 ft 410 kts 287°
2026-05-05 06:42 52.80783 4.06620 23764 ft 413 kts 287°
2026-05-05 06:43 52.81684 4.02097 24198 ft 416 kts 286°
2026-05-05 06:43 52.82595 3.97526 24612 ft 419 kts 287°
2026-05-05 06:43 52.83511 3.92933 25021 ft 422 kts 286°
2026-05-05 06:43 52.84428 3.88317 25437 ft 424 kts 286°
2026-05-05 06:44 52.85349 3.83663 25848 ft 427 kts 286°
2026-05-05 06:44 52.86262 3.79041 26252 ft 429 kts 286°
2026-05-05 06:44 52.87189 3.74340 26654 ft 431 kts 286°
2026-05-05 06:44 52.88122 3.69596 27053 ft 433 kts 286°
2026-05-05 06:45 52.89055 3.64838 27443 ft 436 kts 286°
2026-05-05 06:45 52.89995 3.60038 27834 ft 438 kts 286°
2026-05-05 06:45 52.90934 3.55225 28214 ft 440 kts 286°
2026-05-05 06:45 52.91878 3.50378 28585 ft 442 kts 286°
2026-05-05 06:46 52.92811 3.45573 28917 ft 445 kts 286°
2026-05-05 06:46 52.93762 3.40665 29253 ft 448 kts 286°
2026-05-05 06:46 52.94714 3.35737 29589 ft 450 kts 286°
2026-05-05 06:46 52.95670 3.30778 29918 ft 453 kts 286°
2026-05-05 06:47 52.96628 3.25791 30235 ft 455 kts 286°
2026-05-05 06:47 52.97589 3.20777 30497 ft 458 kts 286°
2026-05-05 06:47 52.98558 3.15713 30757 ft 460 kts 287°
2026-05-05 06:47 52.99527 3.10634 30999 ft 463 kts 287°
2026-05-05 06:48 53.00500 3.05518 31250 ft 465 kts 287°
2026-05-05 06:48 53.01473 3.00383 31488 ft 468 kts 287°
2026-05-05 06:48 53.02454 2.95199 31711 ft 471 kts 287°
2026-05-05 06:48 53.03427 2.90048 31938 ft 474 kts 287°
2026-05-05 06:49 53.04414 2.84796 32162 ft 477 kts 287°
2026-05-05 06:49 53.05406 2.79511 32385 ft 480 kts 287°
2026-05-05 06:49 53.06402 2.74186 32615 ft 482 kts 287°
2026-05-05 06:49 53.07401 2.68831 32844 ft 484 kts 287°
2026-05-05 06:50 53.08397 2.63477 33183 ft 484 kts 287°
2026-05-05 06:50 53.09381 2.58172 33519 ft 484 kts 287°
2026-05-05 06:50 53.10331 2.53030 33819 ft 485 kts 287°
2026-05-05 06:50 53.11102 2.47563 34063 ft 485 kts 277°
2026-05-05 06:51 53.11571 2.41981 34042 ft 486 kts 277°
2026-05-05 06:51 53.12459 2.30850 34040 ft 484 kts 277°
2026-05-05 06:52 53.13368 2.19806 34039 ft 483 kts 277°
2026-05-05 06:52 53.14251 2.08696 34040 ft 483 kts 277°
2026-05-05 06:53 53.15118 1.97796 34044 ft 485 kts 277°
2026-05-05 06:53 53.15984 1.86701 34042 ft 485 kts 277°
2026-05-05 06:54 53.16848 1.75529 34039 ft 486 kts 277°
2026-05-05 06:54 53.17700 1.64350 34039 ft 485 kts 277°
2026-05-05 06:55 53.18542 1.53181 34039 ft 486 kts 277°
2026-05-05 06:55 53.19374 1.41991 34038 ft 487 kts 277°
2026-05-05 06:56 53.20197 1.30777 34039 ft 487 kts 277°
2026-05-05 06:56 53.21005 1.19619 34039 ft 487 kts 277°
2026-05-05 06:57 53.21807 1.08387 34040 ft 487 kts 277°
2026-05-05 06:57 53.22600 0.97143 34037 ft 488 kts 277°
2026-05-05 06:58 53.23379 0.85935 34038 ft 488 kts 276°
2026-05-05 06:58 53.24151 0.74674 34038 ft 488 kts 276°
2026-05-05 06:59 53.24915 0.63378 34039 ft 488 kts 276°
2026-05-05 06:59 53.25664 0.52130 34046 ft 485 kts 276°
2026-05-05 07:00 53.26393 0.41025 34043 ft 483 kts 276°
2026-05-05 07:00 53.27116 0.29860 34044 ft 483 kts 276°
2026-05-05 07:01 53.27828 0.18683 34046 ft 483 kts 276°
2026-05-05 07:01 53.28529 0.07524 34046 ft 483 kts 276°
2026-05-05 07:02 53.29516 -0.03582 34059 ft 483 kts 280°
2026-05-05 07:02 53.30648 -0.14652 34062 ft 482 kts 279°
2026-05-05 07:03 53.31790 -0.25704 34063 ft 482 kts 279°
2026-05-05 07:03 53.32890 -0.36552 34065 ft 482 kts 279°
2026-05-05 07:04 53.34004 -0.47567 34067 ft 482 kts 279°
2026-05-05 07:04 53.35118 -0.58651 34067 ft 483 kts 279°
2026-05-05 07:05 53.36217 -0.69731 34069 ft 483 kts 279°
2026-05-05 07:05 53.37308 -0.80844 34069 ft 483 kts 279°
2026-05-05 07:06 53.38387 -0.91947 34072 ft 483 kts 279°
2026-05-05 07:06 53.39447 -1.03001 34073 ft 483 kts 279°
2026-05-05 07:07 53.40504 -1.14112 34074 ft 482 kts 279°
2026-05-05 07:07 53.41555 -1.25231 34077 ft 482 kts 279°
2026-05-05 07:08 53.42587 -1.36351 34077 ft 482 kts 279°
2026-05-05 07:08 53.43616 -1.47486 34078 ft 482 kts 278°
2026-05-05 07:09 53.44609 -1.58391 34079 ft 482 kts 278°
2026-05-05 07:09 53.45619 -1.69518 34081 ft 482 kts 278°
2026-05-05 07:10 53.46615 -1.80651 34081 ft 481 kts 278°
2026-05-05 07:10 53.47591 -1.91695 34086 ft 481 kts 278°
2026-05-05 07:11 53.48563 -2.02832 34087 ft 481 kts 278°
2026-05-05 07:11 53.49526 -2.13974 34091 ft 481 kts 278°
2026-05-05 07:12 53.50475 -2.25090 34091 ft 481 kts 278°
2026-05-05 07:12 53.51408 -2.36156 34092 ft 480 kts 278°
2026-05-05 07:13 53.52338 -2.47295 34090 ft 481 kts 278°
2026-05-05 07:13 53.53256 -2.58438 34092 ft 481 kts 278°
2026-05-05 07:14 53.54164 -2.69576 34093 ft 480 kts 278°
2026-05-05 07:14 53.55046 -2.80528 34095 ft 481 kts 278°
2026-05-05 07:15 53.55926 -2.91598 34097 ft 480 kts 277°
2026-05-05 07:15 53.56804 -3.02768 34097 ft 480 kts 277°
2026-05-05 07:16 53.57669 -3.13908 34099 ft 480 kts 277°
2026-05-05 07:16 53.58517 -3.24963 34096 ft 478 kts 277°
2026-05-05 07:17 53.59363 -3.36133 34093 ft 478 kts 277°
2026-05-05 07:17 53.60195 -3.47255 34092 ft 478 kts 277°
2026-05-05 07:18 53.61011 -3.58312 34096 ft 479 kts 277°
2026-05-05 07:18 53.61717 -3.69447 34114 ft 477 kts 274°
2026-05-05 07:19 53.62194 -3.80621 34101 ft 478 kts 274°
2026-05-05 07:19 53.62642 -3.91790 34104 ft 478 kts 274°
2026-05-05 07:20 53.63087 -4.02897 34104 ft 478 kts 274°
2026-05-05 07:20 53.63537 -4.14085 34106 ft 478 kts 274°
2026-05-05 07:21 53.63949 -4.25249 34108 ft 476 kts 274°
2026-05-05 07:21 53.64366 -4.36373 34107 ft 475 kts 274°
2026-05-05 07:22 53.64711 -4.45618 34106 ft 474 kts 274°
2026-05-05 07:22 53.65106 -4.56762 34110 ft 475 kts 273°
2026-05-05 07:23 53.65489 -4.67807 34107 ft 473 kts 273°
2026-05-05 07:23 53.65857 -4.78714 34107 ft 472 kts 273°
2026-05-05 07:24 53.66219 -4.89766 34110 ft 472 kts 273°
2026-05-05 07:24 53.66573 -5.00848 34113 ft 472 kts 273°
2026-05-05 07:25 53.66916 -5.11913 34114 ft 472 kts 273°
2026-05-05 07:25 53.67244 -5.22910 34114 ft 472 kts 272°
2026-05-05 07:26 53.67559 -5.33974 34116 ft 471 kts 272°
2026-05-05 07:26 53.67867 -5.45017 34116 ft 471 kts 272°
2026-05-05 07:27 53.68446 -5.56006 34111 ft 471 kts 277°
2026-05-05 07:27 53.69236 -5.66975 34117 ft 471 kts 276°
2026-05-05 07:28 53.70019 -5.77883 34118 ft 471 kts 276°
2026-05-05 07:28 53.70795 -5.88873 34122 ft 471 kts 276°
2026-05-05 07:29 53.71561 -5.99856 34120 ft 471 kts 276°
2026-05-05 07:29 53.72318 -6.10846 34124 ft 471 kts 276°
2026-05-05 07:30 53.73065 -6.21858 34127 ft 471 kts 276°
2026-05-05 07:30 53.74159 -6.38263 34125 ft 469 kts 276°
2026-05-05 07:31 53.74878 -6.49237 34127 ft 469 kts 276°
2026-05-05 07:31 53.75585 -6.60194 34127 ft 469 kts 276°
2026-05-05 07:32 53.76283 -6.71157 34130 ft 469 kts 276°
2026-05-05 07:32 53.76967 -6.82062 34131 ft 469 kts 275°
2026-05-05 07:33 53.77643 -6.93007 34135 ft 467 kts 275°
2026-05-05 07:33 53.78310 -7.03968 34135 ft 467 kts 275°
2026-05-05 07:34 53.78963 -7.14858 34132 ft 466 kts 275°
2026-05-05 07:34 53.79606 -7.25756 34131 ft 465 kts 275°
2026-05-05 07:35 53.80239 -7.36652 34135 ft 464 kts 275°
2026-05-05 07:35 53.80861 -7.47528 34135 ft 464 kts 275°
2026-05-05 07:36 53.81462 -7.58223 34137 ft 464 kts 275°
2026-05-05 07:36 53.82061 -7.69042 34137 ft 464 kts 274°
2026-05-05 07:37 53.82654 -7.79934 34136 ft 464 kts 274°
2026-05-05 07:37 53.83237 -7.90846 34129 ft 465 kts 275°
2026-05-05 07:38 53.83812 -8.01775 34136 ft 466 kts 274°
2026-05-05 07:38 53.84373 -8.12647 34137 ft 466 kts 274°
2026-05-05 07:39 53.84931 -8.23651 34140 ft 466 kts 274°
2026-05-05 07:39 53.85474 -8.34542 34141 ft 466 kts 274°
2026-05-05 07:40 53.86010 -8.45516 34144 ft 468 kts 275°
2026-05-05 07:40 53.86536 -8.56462 34146 ft 468 kts 275°
2026-05-05 07:41 53.87053 -8.67474 34151 ft 468 kts 274°
2026-05-05 07:41 53.87555 -8.78350 34152 ft 468 kts 274°
2026-05-05 07:42 53.88049 -8.89288 34152 ft 468 kts 274°
2026-05-05 07:42 53.88537 -9.00319 34146 ft 470 kts 275°
2026-05-05 07:43 53.89016 -9.11362 34148 ft 469 kts 275°
2026-05-05 07:43 53.89485 -9.22426 34156 ft 470 kts 275°
2026-05-05 07:44 53.89944 -9.33482 34164 ft 470 kts 274°
2026-05-05 07:44 53.90391 -9.44501 34168 ft 471 kts 274°
2026-05-05 07:45 53.90831 -9.55600 34168 ft 471 kts 274°
2026-05-05 07:45 53.91260 -9.66683 34168 ft 471 kts 274°
2026-05-05 07:46 53.91676 -9.77701 34171 ft 471 kts 274°
2026-05-05 07:46 53.92085 -9.88782 34172 ft 471 kts 274°
2026-05-05 07:47 53.92483 -9.99880 34175 ft 471 kts 274°
2026-05-05 07:47 53.92872 -10.10994 34169 ft 471 kts 274°
2026-05-05 07:48 53.93249 -10.22050 34175 ft 471 kts 274°
2026-05-05 07:48 53.93617 -10.33163 34176 ft 471 kts 274°
2026-05-05 07:49 53.93976 -10.44278 34176 ft 471 kts 274°
2026-05-05 07:49 53.94321 -10.55301 34184 ft 471 kts 274°
2026-05-05 07:50 53.94658 -10.66427 34181 ft 470 kts 274°
2026-05-05 07:50 53.94985 -10.77516 34182 ft 471 kts 274°
2026-05-05 07:51 53.95301 -10.88616 34182 ft 470 kts 274°
2026-05-05 07:51 53.95607 -10.99715 34183 ft 470 kts 274°
2026-05-05 07:52 53.95902 -11.10762 34186 ft 471 kts 274°
2026-05-05 07:52 53.96188 -11.21885 34192 ft 471 kts 274°
2026-05-05 07:53 53.96463 -11.32939 34199 ft 471 kts 273°
2026-05-05 07:53 53.96728 -11.44033 34202 ft 470 kts 273°
2026-05-05 07:54 53.96983 -11.55129 34202 ft 470 kts 273°
2026-05-05 07:54 53.97227 -11.66226 34196 ft 470 kts 273°
2026-05-05 07:55 53.97461 -11.77312 34201 ft 469 kts 273°
2026-05-05 07:55 53.97684 -11.88338 34204 ft 469 kts 273°
2026-05-05 07:56 53.97898 -11.99437 34205 ft 470 kts 272°
2026-05-05 07:56 53.98102 -12.10539 34208 ft 470 kts 272°
2026-05-05 07:57 53.98296 -12.21623 34201 ft 469 kts 272°
2026-05-05 07:57 53.98478 -12.32739 34204 ft 470 kts 272°
2026-05-05 07:58 53.98652 -12.43851 34205 ft 470 kts 272°
2026-05-05 07:58 53.98814 -12.54890 34208 ft 470 kts 272°
2026-05-05 07:59 53.98967 -12.66023 34212 ft 470 kts 272°
2026-05-05 07:59 53.99109 -12.77119 34215 ft 470 kts 271°
2026-05-05 08:00 53.99241 -12.88228 34215 ft 470 kts 271°
2026-05-05 08:00 53.99363 -12.99266 34217 ft 470 kts 271°
2026-05-05 08:01 53.99474 -13.10378 34221 ft 470 kts 271°
2026-05-05 08:01 53.99576 -13.21504 34221 ft 470 kts 271°
2026-05-05 08:02 53.99666 -13.32597 34226 ft 467 kts 272°
2026-05-05 08:02 53.99747 -13.43552 34221 ft 465 kts 272°
2026-05-05 08:03 53.99817 -13.54549 34231 ft 464 kts 271°
2026-05-05 08:03 53.99878 -13.65529 34229 ft 464 kts 271°
2026-05-05 08:04 53.99927 -13.76435 34228 ft 464 kts 271°
2026-05-05 08:04 53.99967 -13.87410 34234 ft 462 kts 271°
2026-05-05 08:05 53.99998 -13.98360 34232 ft 462 kts 271°
2026-05-05 08:05 54.00033 -14.09220 34240 ft 462 kts 272°
2026-05-05 08:06 54.00070 -14.20150 34239 ft 462 kts 271°
2026-05-05 08:06 54.00089 -14.31096 34244 ft 463 kts 271°
2026-05-05 08:07 54.00103 -14.42026 34243 ft 461 kts 271°
2026-05-05 08:07 54.00104 -14.52953 34243 ft 461 kts 271°
2026-05-05 08:08 54.00097 -14.63788 34235 ft 462 kts 271°
2026-05-05 08:08 54.00080 -14.74698 34245 ft 461 kts 271°
2026-05-05 08:09 54.00058 -14.83776 34245 ft 461 kts 271°
2026-05-05 08:09 54.00023 -14.94575 34245 ft 461 kts 270°
2026-05-05 08:10 54.00130 -15.05472 34251 ft 461 kts 273°
2026-05-05 08:10 54.00322 -15.16374 34265 ft 461 kts 272°
2026-05-05 08:11 54.00539 -15.27255 34263 ft 461 kts 272°
2026-05-05 08:11 54.00731 -15.38106 34265 ft 461 kts 272°
2026-05-05 08:12 54.00920 -15.49013 34267 ft 461 kts 272°
2026-05-05 08:12 54.01096 -15.59915 34267 ft 461 kts 272°
2026-05-05 08:13 54.01263 -15.70818 34269 ft 461 kts 272°
2026-05-05 08:13 54.01420 -15.81668 34268 ft 461 kts 272°
2026-05-05 08:14 54.01567 -15.92575 34276 ft 461 kts 272°
2026-05-05 08:14 54.01705 -16.03487 34257 ft 461 kts 271°
2026-05-05 08:15 54.01832 -16.14408 34258 ft 461 kts 271°
2026-05-05 08:15 54.01951 -16.25324 34268 ft 461 kts 271°
2026-05-05 08:16 54.02059 -16.36248 34274 ft 462 kts 271°
2026-05-05 08:16 54.02156 -16.47122 34274 ft 462 kts 271°
2026-05-05 08:17 54.02245 -16.58051 34276 ft 462 kts 271°
2026-05-05 08:17 54.02322 -16.68916 34277 ft 462 kts 271°
2026-05-05 08:18 54.02391 -16.79845 34277 ft 462 kts 271°
2026-05-05 08:18 54.02450 -16.90785 34266 ft 462 kts 271°
2026-05-05 08:19 54.02499 -17.01711 34267 ft 462 kts 271°
2026-05-05 08:19 54.02538 -17.12638 34275 ft 462 kts 270°
2026-05-05 08:20 54.02566 -17.23492 34278 ft 462 kts 270°
2026-05-05 08:20 54.02585 -17.34435 34279 ft 461 kts 270°
2026-05-05 08:21 54.02594 -17.45376 34274 ft 462 kts 270°
2026-05-05 08:21 54.02594 -17.56298 34275 ft 462 kts 270°
2026-05-05 08:22 54.02583 -17.67231 34270 ft 462 kts 270°
2026-05-05 08:22 54.02563 -17.78098 34275 ft 462 kts 270°
2026-05-05 08:23 54.02532 -17.89005 34276 ft 462 kts 270°
2026-05-05 08:23 54.02492 -17.99926 34276 ft 462 kts 269°
2026-05-05 08:24 54.02442 -18.10849 34274 ft 462 kts 269°
2026-05-05 08:24 54.02382 -18.21794 34281 ft 462 kts 269°
2026-05-05 08:25 54.02311 -18.32707 34293 ft 461 kts 269°
2026-05-05 08:25 54.02232 -18.43557 34301 ft 461 kts 269°
2026-05-05 08:26 54.02143 -18.54462 34285 ft 461 kts 269°
2026-05-05 08:26 54.02043 -18.65375 34291 ft 461 kts 269°
2026-05-05 08:27 54.01934 -18.76279 34282 ft 461 kts 269°
2026-05-05 08:27 54.01814 -18.87183 34304 ft 461 kts 269°
2026-05-05 08:28 54.01686 -18.98008 34313 ft 461 kts 269°
2026-05-05 08:28 54.01547 -19.08942 34296 ft 462 kts 268°
2026-05-05 08:29 54.01398 -19.19871 34294 ft 462 kts 268°
2026-05-05 08:30 54.01155 -19.36282 34301 ft 463 kts 268°
2026-05-05 08:30 54.00981 -19.47225 34302 ft 463 kts 268°
2026-05-05 08:31 54.00797 -19.58174 34307 ft 463 kts 268°
2026-05-05 08:31 54.00603 -19.69127 34309 ft 463 kts 268°
2026-05-05 08:32 54.00400 -19.80008 34312 ft 463 kts 268°
2026-05-05 08:32 54.00185 -19.90966 34306 ft 464 kts 268°
2026-05-05 08:33 54.00079 -20.01926 34330 ft 463 kts 275°
2026-05-05 08:33 54.00531 -20.12881 34313 ft 464 kts 273°
2026-05-05 08:34 54.00965 -20.23761 34319 ft 464 kts 274°
2026-05-05 08:34 54.01396 -20.34703 34319 ft 464 kts 273°
2026-05-05 08:35 54.01813 -20.45675 34324 ft 465 kts 273°
2026-05-05 08:35 54.02226 -20.56692 34319 ft 467 kts 273°
2026-05-05 08:36 54.02627 -20.67735 34315 ft 468 kts 273°
2026-05-05 08:36 54.03020 -20.78798 34315 ft 468 kts 273°
2026-05-05 08:37 54.03402 -20.89867 34320 ft 468 kts 273°
2026-05-05 08:37 54.03772 -21.00863 34314 ft 469 kts 273°
2026-05-05 08:38 54.04136 -21.11984 34323 ft 470 kts 273°
2026-05-05 08:38 54.04488 -21.23085 34324 ft 470 kts 273°
2026-05-05 08:39 54.04831 -21.34193 34325 ft 470 kts 273°
2026-05-05 08:39 54.05162 -21.45254 34328 ft 470 kts 273°
2026-05-05 08:40 54.05485 -21.56389 34326 ft 470 kts 272°
2026-05-05 08:40 54.05798 -21.67529 34325 ft 472 kts 272°
2026-05-05 08:41 54.06101 -21.78700 34326 ft 472 kts 272°
2026-05-05 08:41 54.06394 -21.89877 34327 ft 472 kts 272°
2026-05-05 08:42 54.06675 -22.00993 34325 ft 472 kts 272°
2026-05-05 08:42 54.06947 -22.12169 34328 ft 473 kts 272°
2026-05-05 08:43 54.07209 -22.23378 34329 ft 473 kts 272°
2026-05-05 08:43 54.07461 -22.34558 34332 ft 473 kts 272°
2026-05-05 08:44 54.07702 -22.45742 34332 ft 473 kts 272°
2026-05-05 08:44 54.07932 -22.56876 34336 ft 473 kts 272°
2026-05-05 08:45 54.08153 -22.68089 34336 ft 473 kts 272°
2026-05-05 08:45 54.08363 -22.79309 34337 ft 475 kts 272°
2026-05-05 08:46 54.08564 -22.90560 34338 ft 475 kts 272°
2026-05-05 08:46 54.08753 -23.01754 34345 ft 476 kts 272°
2026-05-05 08:47 54.08935 -23.13094 34346 ft 478 kts 272°
2026-05-05 08:47 54.09104 -23.24355 34346 ft 478 kts 272°
2026-05-05 08:48 54.09263 -23.35687 34340 ft 478 kts 272°
2026-05-05 08:48 54.09413 -23.47019 34341 ft 478 kts 272°
2026-05-05 08:49 54.09551 -23.58363 34341 ft 478 kts 272°
2026-05-05 08:49 54.09678 -23.69643 34342 ft 478 kts 272°
2026-05-05 08:50 54.09796 -23.80981 34342 ft 478 kts 272°
2026-05-05 08:50 54.09902 -23.92349 34345 ft 478 kts 272°
2026-05-05 08:51 54.09998 -24.03598 34350 ft 477 kts 272°
2026-05-05 08:51 54.10083 -24.14922 34356 ft 477 kts 272°
2026-05-05 08:52 54.10157 -24.26249 34356 ft 477 kts 272°
2026-05-05 08:52 54.10221 -24.37577 34368 ft 478 kts 272°
2026-05-05 08:53 54.10275 -24.48916 34337 ft 478 kts 272°
2026-05-05 08:53 54.10317 -24.60164 34355 ft 476 kts 272°
2026-05-05 08:54 54.10349 -24.71424 34359 ft 475 kts 272°
2026-05-05 08:54 54.10370 -24.82686 34363 ft 475 kts 272°
2026-05-05 08:55 54.10381 -24.93939 34364 ft 475 kts 272°
2026-05-05 08:55 54.10382 -25.05119 34364 ft 475 kts 272°
2026-05-05 08:56 54.10371 -25.16376 34358 ft 473 kts 272°
2026-05-05 08:56 54.10355 -25.25717 34361 ft 474 kts 272°
2026-05-05 08:57 54.10326 -25.36932 34367 ft 474 kts 272°
2026-05-05 08:57 54.10287 -25.48173 34367 ft 473 kts 272°
2026-05-05 08:58 54.10237 -25.59406 34372 ft 475 kts 272°
2026-05-05 08:58 54.10176 -25.70592 34371 ft 474 kts 272°
2026-05-05 08:59 54.10105 -25.81804 34374 ft 472 kts 271°
2026-05-05 08:59 54.10024 -25.93007 34375 ft 472 kts 271°
2026-05-05 09:00 54.09933 -26.04201 34375 ft 472 kts 271°
2026-05-05 09:00 54.09831 -26.15391 34376 ft 472 kts 271°
2026-05-05 09:01 54.09719 -26.26522 34377 ft 472 kts 271°
2026-05-05 09:01 54.09597 -26.37716 34379 ft 471 kts 271°
2026-05-05 09:02 54.09464 -26.48886 34380 ft 471 kts 271°
2026-05-05 09:02 54.09322 -26.59994 34380 ft 471 kts 271°
2026-05-05 09:03 54.09168 -26.71188 34382 ft 471 kts 271°
2026-05-05 09:03 54.09004 -26.82388 34363 ft 474 kts 271°
2026-05-05 09:04 54.08830 -26.93545 34391 ft 474 kts 271°
2026-05-05 09:04 54.08644 -27.04802 34388 ft 475 kts 271°
2026-05-05 09:05 54.08449 -27.15986 34390 ft 475 kts 271°
2026-05-05 09:05 54.08242 -27.27231 34389 ft 475 kts 271°
2026-05-05 09:06 54.08024 -27.38486 34396 ft 475 kts 271°
2026-05-05 09:06 54.07796 -27.49746 34388 ft 477 kts 271°
2026-05-05 09:07 54.07557 -27.61034 34388 ft 476 kts 271°
2026-05-05 09:07 54.07309 -27.72250 34388 ft 477 kts 271°
2026-05-05 09:08 54.07049 -27.83524 34389 ft 477 kts 271°
2026-05-05 09:08 54.06778 -27.94817 34391 ft 477 kts 271°
2026-05-05 09:09 54.06496 -28.06134 34388 ft 481 kts 271°
2026-05-05 09:09 54.06201 -28.17500 34389 ft 479 kts 271°
2026-05-05 09:10 54.05900 -28.28739 34390 ft 478 kts 271°
2026-05-05 09:10 54.05585 -28.40070 34388 ft 479 kts 271°
2026-05-05 09:11 54.05260 -28.51401 34391 ft 479 kts 271°
2026-05-05 09:11 54.04923 -28.62737 34398 ft 479 kts 271°
2026-05-05 09:12 54.04579 -28.74001 34397 ft 479 kts 271°
2026-05-05 09:12 54.04221 -28.85336 34403 ft 479 kts 271°
2026-05-05 09:13 54.03853 -28.96672 34404 ft 479 kts 271°
2026-05-05 09:13 54.03477 -29.07934 34402 ft 479 kts 271°
2026-05-05 09:14 54.03087 -29.19248 34396 ft 479 kts 271°
2026-05-05 09:14 54.02689 -29.30547 34395 ft 480 kts 271°
2026-05-05 09:15 54.02277 -29.41883 34395 ft 480 kts 271°
2026-05-05 09:15 54.01855 -29.53234 34397 ft 480 kts 271°
2026-05-05 09:16 54.01425 -29.64500 34399 ft 480 kts 271°
2026-05-05 09:16 54.00982 -29.75826 34410 ft 479 kts 271°
2026-05-05 09:17 54.00530 -29.87100 34407 ft 477 kts 271°
2026-05-05 09:17 54.00070 -29.98348 34403 ft 476 kts 271°
2026-05-05 09:18 53.99440 -30.09586 34408 ft 477 kts 270°
2026-05-05 09:18 53.98820 -30.20739 34405 ft 477 kts 269°
2026-05-05 09:19 53.98143 -30.31981 34396 ft 476 kts 269°
2026-05-05 09:19 53.97485 -30.43144 34403 ft 474 kts 269°
2026-05-05 09:20 53.96805 -30.54274 34391 ft 474 kts 269°
2026-05-05 09:20 53.96125 -30.65342 34386 ft 474 kts 269°
2026-05-05 09:21 53.95426 -30.76503 34385 ft 474 kts 269°
2026-05-05 09:21 53.94718 -30.87653 34365 ft 474 kts 269°
2026-05-05 09:22 53.94003 -30.98734 34393 ft 471 kts 269°
2026-05-05 09:22 53.93283 -31.09765 34393 ft 470 kts 269°
2026-05-05 09:23 53.92556 -31.20711 34387 ft 470 kts 269°
2026-05-05 09:23 53.91815 -31.31737 34389 ft 470 kts 269°
2026-05-05 09:24 53.91061 -31.42789 34341 ft 470 kts 269°
2026-05-05 09:24 53.90306 -31.53679 34387 ft 465 kts 268°
2026-05-05 09:25 53.89547 -31.64529 34380 ft 463 kts 268°
2026-05-05 09:25 53.88777 -31.75378 34379 ft 463 kts 268°
2026-05-05 09:26 53.87997 -31.86233 34375 ft 464 kts 268°
2026-05-05 09:26 53.87206 -31.97083 34376 ft 467 kts 268°
2026-05-05 09:27 53.86402 -32.07963 34381 ft 464 kts 267°
2026-05-05 09:27 53.85593 -32.18799 34372 ft 462 kts 267°
2026-05-05 09:28 53.84775 -32.29609 34374 ft 462 kts 267°
2026-05-05 09:28 53.83949 -32.40398 34373 ft 462 kts 266°
2026-05-05 09:29 53.83117 -32.51131 34367 ft 462 kts 266°
2026-05-05 09:29 53.82272 -32.61919 34366 ft 462 kts 265°
2026-05-05 09:30 53.81415 -32.72698 34362 ft 462 kts 265°
2026-05-05 09:30 53.80549 -32.83496 34362 ft 462 kts 265°
2026-05-05 09:31 53.79677 -32.94220 34357 ft 462 kts 265°
2026-05-05 09:31 53.78792 -33.04994 34360 ft 462 kts 265°
2026-05-05 09:32 53.77900 -33.15759 34365 ft 463 kts 264°
2026-05-05 09:32 53.76985 -33.26626 34362 ft 467 kts 264°
2026-05-05 09:33 53.76063 -33.37484 34357 ft 467 kts 264°
2026-05-05 09:33 53.75135 -33.48283 34358 ft 467 kts 264°
2026-05-05 09:34 53.74192 -33.59144 34357 ft 467 kts 264°
2026-05-05 09:34 53.73240 -33.69995 34350 ft 467 kts 263°
2026-05-05 09:35 53.72276 -33.80854 34345 ft 467 kts 263°
2026-05-05 09:35 53.70812 -33.97135 34351 ft 467 kts 263°
2026-05-05 09:36 53.69831 -34.07912 34339 ft 467 kts 263°
2026-05-05 09:36 53.68833 -34.18757 34336 ft 467 kts 263°
2026-05-05 09:37 53.67824 -34.29625 34326 ft 473 kts 262°
2026-05-05 09:37 53.66791 -34.40597 34329 ft 473 kts 262°
2026-05-05 09:38 53.65752 -34.51562 34328 ft 473 kts 262°
2026-05-05 09:38 53.64705 -34.62479 34328 ft 473 kts 262°
2026-05-05 09:39 53.63644 -34.73437 34319 ft 473 kts 262°
2026-05-05 09:39 53.62574 -34.84395 34312 ft 472 kts 261°
2026-05-05 09:40 53.61495 -34.95304 34302 ft 472 kts 261°
2026-05-05 09:40 53.60416 -35.06142 34305 ft 473 kts 261°
2026-05-05 09:41 53.59317 -35.17058 34301 ft 471 kts 261°
2026-05-05 09:41 53.58210 -35.27957 34301 ft 472 kts 261°
2026-05-05 09:42 53.57092 -35.38858 34291 ft 475 kts 259°
2026-05-05 09:42 53.55956 -35.49814 34291 ft 475 kts 259°
2026-05-05 09:43 53.54811 -35.60787 34288 ft 476 kts 259°
2026-05-05 09:43 53.53661 -35.71678 34294 ft 476 kts 259°
2026-05-05 09:44 53.52489 -35.82687 34284 ft 477 kts 258°
2026-05-05 09:44 53.51508 -35.91841 34276 ft 482 kts 258°
2026-05-05 09:45 53.50096 -36.04856 34271 ft 487 kts 258°
2026-05-05 09:45 53.49072 -36.14238 34274 ft 487 kts 257°
2026-05-05 09:46 53.47845 -36.25360 34261 ft 487 kts 257°
2026-05-05 09:46 53.46601 -36.36547 34262 ft 487 kts 257°
2026-05-05 09:47 53.45347 -36.47731 34252 ft 487 kts 256°
2026-05-05 09:47 53.44078 -36.58928 34257 ft 488 kts 256°
2026-05-05 09:48 53.42801 -36.70108 34245 ft 488 kts 256°
2026-05-05 09:48 53.41519 -36.81226 34237 ft 488 kts 256°
2026-05-05 09:49 53.40222 -36.92393 34233 ft 488 kts 256°
2026-05-05 09:49 53.38909 -37.03582 34230 ft 491 kts 255°
2026-05-05 09:50 53.37574 -37.14878 34219 ft 493 kts 255°
2026-05-05 09:50 53.36236 -37.26099 34215 ft 494 kts 255°
2026-05-05 09:51 53.34879 -37.37373 34199 ft 494 kts 255°
2026-05-05 09:51 53.33522 -37.48567 34198 ft 493 kts 255°
2026-05-05 09:52 53.32141 -37.59845 34189 ft 497 kts 254°
2026-05-05 09:52 53.30745 -37.71174 34193 ft 497 kts 254°
2026-05-05 09:53 53.29339 -37.82479 34179 ft 497 kts 254°
2026-05-05 09:53 53.27919 -37.93794 34176 ft 497 kts 254°
2026-05-05 09:54 53.26499 -38.05032 34184 ft 497 kts 253°
2026-05-05 09:54 53.25059 -38.16330 34148 ft 497 kts 253°
2026-05-05 09:55 53.23608 -38.27620 34149 ft 498 kts 252°
2026-05-05 09:55 53.22137 -38.38975 34139 ft 500 kts 252°
2026-05-05 09:56 53.20663 -38.50269 34135 ft 500 kts 252°
2026-05-05 09:56 53.19169 -38.61622 34149 ft 501 kts 252°
2026-05-05 09:57 53.17665 -38.72963 34131 ft 500 kts 251°
2026-05-05 09:57 53.16159 -38.84222 34129 ft 500 kts 251°
2026-05-05 09:58 53.14635 -38.95541 34132 ft 500 kts 251°
2026-05-05 09:58 53.13100 -39.06844 34125 ft 500 kts 251°
2026-05-05 09:59 53.11561 -39.18092 34126 ft 500 kts 251°
2026-05-05 09:59 53.10002 -39.29400 34119 ft 500 kts 251°
2026-05-05 10:00 53.08434 -39.40693 34120 ft 500 kts 251°
2026-05-05 10:00 53.06852 -39.51996 34114 ft 502 kts 250°
2026-05-05 10:01 53.05255 -39.63312 34106 ft 506 kts 250°
2026-05-05 10:01 53.03641 -39.74695 34101 ft 503 kts 250°
2026-05-05 10:02 53.02022 -39.85990 34098 ft 501 kts 250°
2026-05-05 10:02 53.00406 -39.97204 34097 ft 501 kts 249°
2026-05-05 10:03 52.98091 -40.07955 34105 ft 493 kts 241°
2026-05-05 10:03 52.95525 -40.18555 34136 ft 494 kts 241°
2026-05-05 10:04 52.93003 -40.28960 34109 ft 487 kts 241°
2026-05-05 10:04 52.90465 -40.39351 34104 ft 485 kts 241°
2026-05-05 10:05 52.87923 -40.49730 34102 ft 485 kts 241°
2026-05-05 10:05 52.85390 -40.60012 34101 ft 485 kts 240°
2026-05-05 10:06 52.82837 -40.70334 34101 ft 483 kts 241°
2026-05-05 10:06 52.80288 -40.80591 34102 ft 481 kts 241°
2026-05-05 10:07 52.77751 -40.90747 34107 ft 481 kts 241°
2026-05-05 10:07 52.75191 -41.00956 34107 ft 481 kts 241°
2026-05-05 10:08 52.72621 -41.11145 34103 ft 482 kts 242°
2026-05-05 10:08 52.70040 -41.21348 34099 ft 482 kts 242°
2026-05-05 10:09 52.67443 -41.31557 34093 ft 482 kts 242°
2026-05-05 10:09 52.64840 -41.41748 34096 ft 482 kts 242°
2026-05-05 10:10 52.62228 -41.51927 34099 ft 482 kts 242°
2026-05-05 10:10 52.59622 -41.62032 34086 ft 481 kts 243°
2026-05-05 10:11 52.57000 -41.72161 34088 ft 481 kts 242°
2026-05-05 10:11 52.54367 -41.82278 34088 ft 480 kts 242°
2026-05-05 10:12 52.51748 -41.92307 34079 ft 480 kts 242°
2026-05-05 10:12 52.49100 -42.02391 34081 ft 481 kts 243°
2026-05-05 10:13 52.46454 -42.12434 34090 ft 478 kts 243°
2026-05-05 10:13 52.43800 -42.22453 34090 ft 478 kts 242°
2026-05-05 10:14 52.41160 -42.32382 34090 ft 478 kts 242°
2026-05-05 10:14 52.38499 -42.42347 34090 ft 478 kts 242°
2026-05-05 10:15 52.35828 -42.52302 34083 ft 475 kts 243°
2026-05-05 10:15 52.33160 -42.62206 34083 ft 475 kts 243°
2026-05-05 10:16 52.30502 -42.72027 34080 ft 475 kts 243°
2026-05-05 10:16 52.27825 -42.81879 34074 ft 474 kts 242°
2026-05-05 10:17 52.25141 -42.91714 34070 ft 474 kts 243°
2026-05-05 10:17 52.22456 -43.01513 34098 ft 472 kts 243°
2026-05-05 10:18 52.19759 -43.11309 34064 ft 474 kts 242°
2026-05-05 10:18 52.17067 -43.21052 34066 ft 474 kts 242°
2026-05-05 10:19 52.14354 -43.30825 34066 ft 474 kts 242°
2026-05-05 10:19 52.11633 -43.40590 34061 ft 473 kts 243°
2026-05-05 10:20 52.08907 -43.50329 34060 ft 472 kts 243°
2026-05-05 10:20 52.06178 -43.60040 34060 ft 472 kts 242°
2026-05-05 10:21 52.03457 -43.69683 34060 ft 472 kts 242°
2026-05-05 10:21 52.00710 -43.79379 34061 ft 472 kts 242°
2026-05-05 10:22 51.97959 -43.89047 34055 ft 472 kts 242°
2026-05-05 10:22 51.95214 -43.98656 34056 ft 472 kts 242°
2026-05-05 10:23 51.92449 -44.08293 34053 ft 472 kts 242°
2026-05-05 10:23 51.89672 -44.17935 34046 ft 472 kts 242°
2026-05-05 10:24 51.86887 -44.27564 34034 ft 470 kts 242°
2026-05-05 10:24 51.84123 -44.37082 34031 ft 469 kts 242°
2026-05-05 10:25 51.81336 -44.46641 34027 ft 469 kts 242°
2026-05-05 10:25 51.78547 -44.56169 34024 ft 469 kts 242°
2026-05-05 10:26 51.75766 -44.65631 34031 ft 469 kts 242°
2026-05-05 10:26 51.72971 -44.75107 34028 ft 467 kts 242°
2026-05-05 10:27 51.70173 -44.84550 34015 ft 467 kts 242°
2026-05-05 10:27 51.67357 -44.94021 34009 ft 468 kts 242°
2026-05-05 10:28 51.64532 -45.03483 34010 ft 468 kts 242°
2026-05-05 10:28 51.61719 -45.12868 33997 ft 467 kts 242°
2026-05-05 10:29 51.58884 -45.22288 34007 ft 467 kts 242°
2026-05-05 10:29 51.56048 -45.31677 34007 ft 467 kts 241°
2026-05-05 10:30 51.53200 -45.41067 34000 ft 466 kts 241°
2026-05-05 10:30 51.50350 -45.50427 33996 ft 466 kts 241°
2026-05-05 10:31 51.47526 -45.59671 33987 ft 464 kts 241°
2026-05-05 10:31 51.44678 -45.68951 33985 ft 463 kts 241°
2026-05-05 10:32 51.41823 -45.78223 33982 ft 463 kts 241°
2026-05-05 10:32 51.38980 -45.87421 33981 ft 463 kts 241°
2026-05-05 10:33 51.36117 -45.96647 33973 ft 462 kts 241°
2026-05-05 10:33 51.33734 -46.04300 33975 ft 462 kts 241°
2026-05-05 10:34 51.30858 -46.13506 33974 ft 461 kts 240°
2026-05-05 10:34 51.27996 -46.22632 33958 ft 462 kts 240°
2026-05-05 10:35 51.25112 -46.31793 33958 ft 461 kts 240°
2026-05-05 10:35 51.22228 -46.40920 33955 ft 459 kts 240°
2026-05-05 10:36 51.19351 -46.49993 33958 ft 458 kts 240°
2026-05-05 10:36 51.16464 -46.59061 33946 ft 459 kts 240°
2026-05-05 10:37 51.13571 -46.68116 33949 ft 461 kts 240°
2026-05-05 10:37 51.10655 -46.77212 33952 ft 460 kts 240°
2026-05-05 10:38 51.07725 -46.86315 33953 ft 461 kts 240°
2026-05-05 10:38 51.04818 -46.95317 33937 ft 461 kts 240°
2026-05-05 10:39 51.01876 -47.04390 33935 ft 461 kts 240°
2026-05-05 10:39 50.98934 -47.13432 33928 ft 461 kts 240°
2026-05-05 10:40 50.95986 -47.22459 33929 ft 461 kts 240°
2026-05-05 10:40 50.93033 -47.31468 33930 ft 461 kts 240°
2026-05-05 10:41 50.90088 -47.40422 33925 ft 461 kts 240°
2026-05-05 10:41 50.87118 -47.49420 33925 ft 460 kts 239°
2026-05-05 10:42 50.82641 -47.62919 33914 ft 462 kts 240°
2026-05-05 10:43 50.79661 -47.71867 33913 ft 462 kts 240°
2026-05-05 10:43 50.76657 -47.80852 33914 ft 463 kts 240°
2026-05-05 10:44 50.73639 -47.89849 33915 ft 463 kts 240°
2026-05-05 10:44 50.70613 -47.98835 33916 ft 463 kts 239°
2026-05-05 10:45 50.67586 -48.07795 33916 ft 463 kts 239°
2026-05-05 10:45 50.64567 -48.16698 33910 ft 463 kts 239°
2026-05-05 10:46 50.61521 -48.25649 33909 ft 463 kts 239°
2026-05-05 10:46 50.58462 -48.34603 33900 ft 465 kts 239°
2026-05-05 10:47 50.55392 -48.43562 33904 ft 465 kts 239°
2026-05-05 10:47 50.52317 -48.52503 33899 ft 465 kts 239°
2026-05-05 10:48 50.49250 -48.61389 33898 ft 465 kts 239°
2026-05-05 10:48 50.46160 -48.70309 33906 ft 465 kts 239°
2026-05-05 10:49 50.43059 -48.79232 33896 ft 465 kts 239°
2026-05-05 10:49 50.39961 -48.88114 33896 ft 464 kts 239°
2026-05-05 10:50 50.36849 -48.97007 33885 ft 464 kts 239°
2026-05-05 10:50 50.33735 -49.05873 33886 ft 464 kts 239°
2026-05-05 10:51 50.30634 -49.14669 33880 ft 464 kts 239°
2026-05-05 10:51 50.27502 -49.23524 33881 ft 464 kts 239°
2026-05-05 10:52 50.24361 -49.32374 33881 ft 464 kts 239°
2026-05-05 10:52 50.21238 -49.41146 33882 ft 464 kts 239°
2026-05-05 10:53 50.18088 -49.49957 33880 ft 464 kts 240°
2026-05-05 10:53 50.14926 -49.58779 33870 ft 464 kts 239°
2026-05-05 10:54 50.11782 -49.67514 33871 ft 464 kts 239°
2026-05-05 10:54 50.08620 -49.76275 33871 ft 464 kts 239°
2026-05-05 10:55 50.05443 -49.85044 33871 ft 464 kts 239°
2026-05-05 10:55 50.02260 -49.93801 33872 ft 464 kts 240°
2026-05-05 10:56 49.99357 -50.02696 33870 ft 465 kts 248°
2026-05-05 10:56 49.97096 -50.12111 33861 ft 465 kts 248°
2026-05-05 10:57 49.94835 -50.21523 33855 ft 465 kts 248°
2026-05-05 10:57 49.92574 -50.30861 33857 ft 464 kts 248°
2026-05-05 10:58 49.90300 -50.40236 33859 ft 463 kts 248°
2026-05-05 10:58 49.88025 -50.49563 33858 ft 462 kts 248°
2026-05-05 10:59 49.85741 -50.58892 33855 ft 462 kts 248°
2026-05-05 10:59 49.83464 -50.68149 33857 ft 462 kts 248°
2026-05-05 11:00 49.81164 -50.77465 33858 ft 461 kts 248°
2026-05-05 11:00 49.78877 -50.86688 33865 ft 461 kts 248°
2026-05-05 11:01 49.76562 -50.95986 33842 ft 463 kts 248°
2026-05-05 11:01 49.74236 -51.05290 33843 ft 463 kts 248°
2026-05-05 11:02 49.71914 -51.14535 33840 ft 463 kts 248°
2026-05-05 11:02 49.69572 -51.23825 33848 ft 463 kts 248°
2026-05-05 11:03 49.67222 -51.33109 33834 ft 464 kts 248°
2026-05-05 11:03 49.64864 -51.42383 33839 ft 464 kts 248°
2026-05-05 11:04 49.62515 -51.51587 33836 ft 464 kts 248°
2026-05-05 11:04 49.60145 -51.60836 33834 ft 464 kts 248°
2026-05-05 11:05 49.57767 -51.70075 33818 ft 462 kts 248°
2026-05-05 11:05 49.55401 -51.79233 33818 ft 462 kts 248°
2026-05-05 11:06 49.53017 -51.88422 33844 ft 461 kts 248°
2026-05-05 11:06 49.50618 -51.97634 33828 ft 464 kts 248°
2026-05-05 11:07 49.48013 -52.06736 33833 ft 464 kts 246°
2026-05-05 11:07 49.45373 -52.15755 33824 ft 464 kts 245°
2026-05-05 11:08 49.42695 -52.24791 33822 ft 465 kts 245°
2026-05-05 11:08 49.40017 -52.33833 33823 ft 465 kts 245°
2026-05-05 11:09 49.37328 -52.42856 33822 ft 465 kts 245°
2026-05-05 11:09 49.34653 -52.51811 33807 ft 464 kts 245°
2026-05-05 11:10 49.31952 -52.60816 33813 ft 464 kts 245°
2026-05-05 11:10 49.29247 -52.69802 33814 ft 464 kts 245°
2026-05-05 11:11 49.26555 -52.78712 33814 ft 464 kts 245°
2026-05-05 11:11 49.23831 -52.87693 33809 ft 464 kts 245°
2026-05-05 11:12 49.21119 -52.96606 33806 ft 464 kts 245°
2026-05-05 11:12 49.18372 -53.05596 33807 ft 465 kts 245°
2026-05-05 11:13 49.15643 -53.14500 33804 ft 465 kts 245°
2026-05-05 11:13 49.12890 -53.23447 33805 ft 465 kts 245°
2026-05-05 11:14 49.10131 -53.32381 33796 ft 464 kts 245°
2026-05-05 11:14 49.07370 -53.41292 33781 ft 463 kts 245°
2026-05-05 11:15 49.04629 -53.50102 33780 ft 463 kts 245°
2026-05-05 11:15 49.01862 -53.58967 33777 ft 463 kts 245°
2026-05-05 11:16 48.99091 -53.67815 33773 ft 463 kts 245°
2026-05-05 11:16 48.96309 -53.76662 33756 ft 463 kts 245°
2026-05-05 11:17 48.93521 -53.85501 33757 ft 463 kts 245°
2026-05-05 11:17 48.90746 -53.94265 33762 ft 463 kts 245°
2026-05-05 11:18 48.87942 -54.03091 33766 ft 464 kts 245°
2026-05-05 11:18 48.85129 -54.11914 33763 ft 463 kts 245°
2026-05-05 11:19 48.82316 -54.20709 33753 ft 462 kts 245°
2026-05-05 11:19 48.79491 -54.29506 33754 ft 462 kts 245°
2026-05-05 11:20 48.76688 -54.38206 33746 ft 463 kts 245°
2026-05-05 11:20 48.73856 -54.46965 33733 ft 462 kts 245°
2026-05-05 11:21 48.71026 -54.55688 33735 ft 460 kts 245°
2026-05-05 11:21 48.68677 -54.62908 33739 ft 460 kts 245°
2026-05-05 11:22 48.65841 -54.71593 33740 ft 459 kts 245°
2026-05-05 11:22 48.63001 -54.80262 33753 ft 460 kts 245°
2026-05-05 11:23 48.60172 -54.88869 33748 ft 459 kts 245°
2026-05-05 11:23 48.57317 -54.97525 33748 ft 460 kts 245°
2026-05-05 11:24 48.54472 -55.06125 33753 ft 460 kts 245°
2026-05-05 11:24 48.51599 -55.14774 33754 ft 460 kts 245°
2026-05-05 11:25 48.48717 -55.23422 33758 ft 460 kts 245°
2026-05-05 11:25 48.45857 -55.31978 33762 ft 459 kts 245°
2026-05-05 11:26 48.42973 -55.40576 33759 ft 458 kts 245°
2026-05-05 11:26 48.40108 -55.49090 33756 ft 458 kts 245°
2026-05-05 11:27 48.37201 -55.57699 33758 ft 458 kts 245°
2026-05-05 11:27 48.34326 -55.66183 33750 ft 458 kts 245°
2026-05-05 11:28 48.31422 -55.74725 33744 ft 458 kts 245°
2026-05-05 11:28 48.28515 -55.83251 33745 ft 458 kts 245°
2026-05-05 11:29 48.25618 -55.91717 33744 ft 458 kts 245°
2026-05-05 11:29 48.22699 -56.00218 33754 ft 458 kts 245°
2026-05-05 11:30 48.19773 -56.08715 33756 ft 458 kts 245°
2026-05-05 11:30 48.16843 -56.17193 33753 ft 458 kts 245°
2026-05-05 11:31 48.13916 -56.25634 33756 ft 458 kts 244°
2026-05-05 11:31 48.10971 -56.34102 33756 ft 458 kts 244°
2026-05-05 11:32 48.08018 -56.42565 33750 ft 458 kts 244°
2026-05-05 11:32 48.05060 -56.51013 33771 ft 458 kts 244°
2026-05-05 11:33 48.02119 -56.59387 33769 ft 458 kts 244°
2026-05-05 11:33 47.99155 -56.67799 33797 ft 458 kts 244°
2026-05-05 11:34 47.96181 -56.76212 33801 ft 458 kts 244°
2026-05-05 11:34 47.93203 -56.84611 33824 ft 458 kts 244°
2026-05-05 11:35 47.90218 -56.92999 33847 ft 458 kts 244°
2026-05-05 11:35 47.87226 -57.01385 33873 ft 458 kts 244°
2026-05-05 11:36 47.84244 -57.09712 33872 ft 458 kts 244°
2026-05-05 11:36 47.81237 -57.18083 33882 ft 457 kts 244°
2026-05-05 11:37 47.78230 -57.26428 33889 ft 458 kts 244°
2026-05-05 11:37 47.75215 -57.34770 33886 ft 457 kts 244°
2026-05-05 11:38 47.72193 -57.43104 33894 ft 458 kts 244°
2026-05-05 11:38 47.69169 -57.51417 33891 ft 458 kts 244°
2026-05-05 11:39 47.66156 -57.59674 33898 ft 457 kts 244°
2026-05-05 11:39 47.63119 -57.67971 33906 ft 457 kts 244°
2026-05-05 11:40 47.60076 -57.76259 33897 ft 457 kts 244°
2026-05-05 11:40 47.57023 -57.84544 33922 ft 457 kts 244°
2026-05-05 11:41 47.53998 -57.92732 33905 ft 454 kts 244°
2026-05-05 11:41 47.50956 -58.00941 33910 ft 454 kts 244°
2026-05-05 11:42 47.47913 -58.09125 33913 ft 454 kts 244°
2026-05-05 11:42 47.44885 -58.17247 33929 ft 454 kts 244°
2026-05-05 11:43 47.41834 -58.25400 33936 ft 452 kts 244°
2026-05-05 11:43 47.38789 -58.33519 33935 ft 452 kts 244°
2026-05-05 11:44 47.35733 -58.41639 33935 ft 452 kts 244°
2026-05-05 11:44 47.32677 -58.49736 33935 ft 452 kts 244°
2026-05-05 11:45 47.29614 -58.57824 33934 ft 453 kts 244°
2026-05-05 11:45 47.26555 -58.65881 33934 ft 453 kts 244°
2026-05-05 11:46 47.23470 -58.73979 33947 ft 453 kts 244°
2026-05-05 11:46 47.20383 -58.82058 33952 ft 453 kts 244°
2026-05-05 11:47 47.17307 -58.90087 33934 ft 452 kts 245°
2026-05-05 11:47 47.14216 -58.98129 33941 ft 451 kts 245°
2026-05-05 11:48 47.09571 -59.10170 33941 ft 451 kts 245°
2026-05-05 11:48 47.06473 -59.18172 33941 ft 451 kts 244°
2026-05-05 11:49 47.03386 -59.26119 33949 ft 450 kts 245°
2026-05-05 11:49 47.00281 -59.34092 33947 ft 450 kts 245°
2026-05-05 11:50 46.97169 -59.42059 33953 ft 450 kts 245°
2026-05-05 11:50 46.94070 -59.49968 33947 ft 450 kts 245°
2026-05-05 11:51 46.90952 -59.57904 33947 ft 450 kts 245°
2026-05-05 11:51 46.87827 -59.65834 33950 ft 450 kts 245°
2026-05-05 11:52 46.84696 -59.73755 33961 ft 450 kts 244°
2026-05-05 11:52 46.81557 -59.81673 33956 ft 450 kts 244°
2026-05-05 11:53 46.78437 -59.89522 33956 ft 450 kts 244°
2026-05-05 11:53 46.75290 -59.97414 33944 ft 449 kts 245°
2026-05-05 11:54 46.72147 -60.05277 33942 ft 449 kts 245°
2026-05-05 11:54 46.68997 -60.13131 33943 ft 449 kts 245°
2026-05-05 11:55 46.65838 -60.20989 33943 ft 449 kts 245°
2026-05-05 11:55 46.62699 -60.28770 33960 ft 448 kts 245°
2026-05-05 11:56 46.59545 -60.36569 33952 ft 446 kts 245°
2026-05-05 11:56 46.56394 -60.44339 33954 ft 445 kts 245°
2026-05-05 11:57 46.53242 -60.52088 33941 ft 447 kts 245°
2026-05-05 11:57 46.50088 -60.59822 33890 ft 447 kts 245°
2026-05-05 11:58 46.46904 -60.67608 33937 ft 449 kts 245°
2026-05-05 11:58 46.43723 -60.75360 33940 ft 449 kts 245°
2026-05-05 11:59 46.40522 -60.83143 33940 ft 449 kts 245°
2026-05-05 11:59 46.37316 -60.90914 33946 ft 449 kts 245°
2026-05-05 12:00 46.34106 -60.98671 33959 ft 450 kts 245°
2026-05-05 12:00 46.30892 -61.06423 33961 ft 449 kts 245°
2026-05-05 12:01 46.27675 -61.14153 33968 ft 450 kts 245°
2026-05-05 12:01 46.24444 -61.21899 33966 ft 449 kts 245°
2026-05-05 12:02 46.21210 -61.29629 33959 ft 449 kts 245°
2026-05-05 12:02 46.17973 -61.37346 33970 ft 448 kts 246°
2026-05-05 12:03 46.14738 -61.45037 33976 ft 447 kts 246°
2026-05-05 12:03 46.11524 -61.52657 33982 ft 447 kts 246°
2026-05-05 12:04 46.08278 -61.60330 33976 ft 447 kts 246°
2026-05-05 12:04 46.05034 -61.67980 33982 ft 447 kts 246°
2026-05-05 12:05 46.01801 -61.75579 33982 ft 448 kts 246°
2026-05-05 12:05 45.98545 -61.83215 33985 ft 448 kts 246°
2026-05-05 12:06 45.95285 -61.90838 33979 ft 448 kts 246°
2026-05-05 12:06 45.92013 -61.98471 33985 ft 448 kts 246°
2026-05-05 12:07 45.88739 -62.06082 33980 ft 448 kts 245°
2026-05-05 12:07 45.85478 -62.13646 33981 ft 448 kts 245°
2026-05-05 12:08 45.82186 -62.21260 33974 ft 448 kts 245°
2026-05-05 12:08 45.78901 -62.28842 33977 ft 451 kts 245°
2026-05-05 12:09 45.75590 -62.36454 33980 ft 450 kts 245°
2026-05-05 12:09 45.72266 -62.44083 33983 ft 450 kts 245°
2026-05-05 12:10 45.69504 -62.50403 33975 ft 450 kts 245°
2026-05-05 12:10 45.65634 -62.59238 33978 ft 452 kts 245°
2026-05-05 12:11 45.62848 -62.65578 33981 ft 452 kts 245°
2026-05-05 12:11 45.59497 -62.73188 33981 ft 452 kts 245°
2026-05-05 12:12 45.56145 -62.80777 33986 ft 452 kts 245°
2026-05-05 12:12 45.52774 -62.88391 33973 ft 452 kts 245°
2026-05-05 12:13 45.49428 -62.95926 33981 ft 453 kts 245°
2026-05-05 12:13 45.46055 -63.03505 33980 ft 453 kts 244°
2026-05-05 12:14 45.42672 -63.11083 33990 ft 452 kts 244°
2026-05-05 12:14 45.39289 -63.18644 33970 ft 452 kts 244°
2026-05-05 12:15 45.35905 -63.26185 33985 ft 455 kts 244°
2026-05-05 12:15 45.32501 -63.33746 33992 ft 453 kts 244°
2026-05-05 12:16 45.29093 -63.41304 33987 ft 453 kts 244°
2026-05-05 12:16 45.25701 -63.48802 33969 ft 453 kts 244°
2026-05-05 12:17 45.22280 -63.56347 33989 ft 454 kts 244°
2026-05-05 12:17 45.18849 -63.63890 33988 ft 454 kts 244°
2026-05-05 12:18 45.15438 -63.71370 33988 ft 454 kts 244°
2026-05-05 12:18 45.11996 -63.78899 33959 ft 454 kts 243°
2026-05-05 12:19 45.08556 -63.86404 33993 ft 454 kts 243°
2026-05-05 12:19 45.05108 -63.93907 33993 ft 454 kts 243°
2026-05-05 12:20 45.01654 -64.01404 33993 ft 455 kts 243°
2026-05-05 12:20 44.98210 -64.08858 33962 ft 455 kts 243°
2026-05-05 12:21 44.94745 -64.16339 33984 ft 455 kts 243°
2026-05-05 12:21 44.91281 -64.23797 33985 ft 455 kts 243°
2026-05-05 12:22 44.87846 -64.31175 33988 ft 454 kts 243°
2026-05-05 12:22 44.84367 -64.38627 33975 ft 454 kts 243°
2026-05-05 12:23 44.80910 -64.46015 33989 ft 454 kts 242°
2026-05-05 12:23 44.77425 -64.53441 33998 ft 454 kts 242°
2026-05-05 12:24 44.73937 -64.60854 33998 ft 453 kts 242°
2026-05-05 12:24 44.70446 -64.68256 33999 ft 453 kts 242°
2026-05-05 12:25 44.66968 -64.75611 34008 ft 454 kts 242°
2026-05-05 12:25 44.63461 -64.83008 34010 ft 454 kts 242°
2026-05-05 12:26 44.59972 -64.90348 34013 ft 454 kts 242°
2026-05-05 12:26 44.56461 -64.97716 33990 ft 454 kts 242°
2026-05-05 12:27 44.52949 -65.05068 34016 ft 454 kts 241°
2026-05-05 12:27 44.49428 -65.12418 34019 ft 454 kts 241°
2026-05-05 12:28 44.45902 -65.19761 34017 ft 454 kts 241°
2026-05-05 12:28 44.42392 -65.27052 34004 ft 454 kts 241°
2026-05-05 12:29 44.38855 -65.34382 34014 ft 454 kts 241°
2026-05-05 12:29 44.35312 -65.41703 34029 ft 455 kts 241°
2026-05-05 12:30 44.31765 -65.49015 34033 ft 454 kts 241°
2026-05-05 12:30 44.28209 -65.56329 34033 ft 455 kts 240°
2026-05-05 12:31 44.24665 -65.63598 34016 ft 455 kts 240°
2026-05-05 12:31 44.21098 -65.70896 34017 ft 455 kts 240°
2026-05-05 12:32 44.17524 -65.78190 34016 ft 455 kts 240°
2026-05-05 12:32 44.13937 -65.85492 34019 ft 456 kts 240°
2026-05-05 12:33 44.10350 -65.92776 34021 ft 456 kts 240°
2026-05-05 12:33 44.06783 -66.00002 34024 ft 456 kts 240°
2026-05-05 12:34 44.03186 -66.07270 34034 ft 456 kts 240°
2026-05-05 12:34 43.99623 -66.14451 34034 ft 456 kts 240°
2026-05-05 12:35 43.96003 -66.21729 34030 ft 456 kts 240°
2026-05-05 12:35 43.92408 -66.28940 34030 ft 456 kts 240°
2026-05-05 12:36 43.88793 -66.36173 34028 ft 456 kts 240°
2026-05-05 12:36 43.85164 -66.43416 34025 ft 457 kts 240°
2026-05-05 12:37 43.81525 -66.50660 34020 ft 458 kts 239°
2026-05-05 12:37 43.77880 -66.57897 34020 ft 458 kts 239°
2026-05-05 12:38 43.74259 -66.65071 34014 ft 457 kts 239°
2026-05-05 12:38 43.70607 -66.72288 34018 ft 459 kts 239°
2026-05-05 12:39 43.66938 -66.79520 34023 ft 459 kts 239°
2026-05-05 12:39 43.63281 -66.86710 34023 ft 459 kts 239°
2026-05-05 12:40 43.59602 -66.93929 34023 ft 459 kts 239°
2026-05-05 12:40 43.55980 -67.01190 34033 ft 457 kts 244°
2026-05-05 12:41 43.52716 -67.08738 34027 ft 458 kts 243°
2026-05-05 12:41 43.49454 -67.16237 34027 ft 458 kts 243°
2026-05-05 12:42 43.46179 -67.23764 34028 ft 458 kts 243°
2026-05-05 12:42 43.42892 -67.31288 34016 ft 458 kts 243°
2026-05-05 12:43 43.39595 -67.38820 34018 ft 458 kts 243°
2026-05-05 12:43 43.36319 -67.46282 34019 ft 458 kts 243°
2026-05-05 12:44 43.33016 -67.53787 34013 ft 459 kts 243°
2026-05-05 12:44 43.29701 -67.61301 34011 ft 459 kts 242°
2026-05-05 12:45 43.26384 -67.68799 34014 ft 459 kts 242°
2026-05-05 12:45 43.23087 -67.76233 34014 ft 459 kts 242°
2026-05-05 12:46 43.19763 -67.83710 34011 ft 459 kts 242°
2026-05-05 12:46 43.16424 -67.91202 34029 ft 461 kts 242°
2026-05-05 12:47 43.13076 -67.98692 34029 ft 460 kts 242°
2026-05-05 12:47 43.09743 -68.06131 34019 ft 460 kts 242°
2026-05-05 12:48 43.06434 -68.13499 34020 ft 460 kts 242°
2026-05-05 12:48 43.03093 -68.20919 34013 ft 461 kts 241°
2026-05-05 12:49 42.99723 -68.28384 34012 ft 461 kts 241°
2026-05-05 12:49 42.96352 -68.35832 34008 ft 461 kts 241°
2026-05-05 12:50 42.92971 -68.43283 34009 ft 461 kts 241°
2026-05-05 12:50 42.89589 -68.50720 34008 ft 462 kts 241°
2026-05-05 12:51 42.86213 -68.58123 34007 ft 462 kts 240°
2026-05-05 12:51 42.82812 -68.65562 34001 ft 461 kts 240°
2026-05-05 12:52 42.79410 -68.72984 33995 ft 461 kts 240°
2026-05-05 12:52 42.76023 -68.80355 34004 ft 461 kts 240°
2026-05-05 12:53 42.72612 -68.87763 34002 ft 462 kts 240°
2026-05-05 12:53 42.69200 -68.95150 34007 ft 461 kts 240°
2026-05-05 12:54 42.64065 -69.06236 34006 ft 462 kts 240°
2026-05-05 12:55 42.60654 -69.13578 33999 ft 462 kts 240°
2026-05-05 12:55 42.57213 -69.20965 34005 ft 462 kts 240°
2026-05-05 12:56 42.53766 -69.28348 34006 ft 462 kts 240°
2026-05-05 12:56 42.50902 -69.34468 33992 ft 462 kts 239°
2026-05-05 12:57 42.46885 -69.43030 33990 ft 463 kts 239°
2026-05-05 12:57 42.44004 -69.49155 33991 ft 463 kts 239°
2026-05-05 12:58 42.40534 -69.56516 33993 ft 463 kts 239°
2026-05-05 12:58 42.37063 -69.63862 33989 ft 463 kts 239°
2026-05-05 12:59 42.33581 -69.71212 33989 ft 464 kts 239°
2026-05-05 12:59 42.30091 -69.78561 33995 ft 464 kts 239°
2026-05-05 13:00 42.24880 -69.89502 33998 ft 463 kts 239°
2026-05-05 13:01 42.17922 -70.04047 33995 ft 461 kts 238°
2026-05-05 13:01 42.14440 -70.11300 33995 ft 460 kts 238°
2026-05-05 13:02 42.10954 -70.18545 33999 ft 461 kts 238°
2026-05-05 13:02 42.07460 -70.25789 33997 ft 460 kts 238°
2026-05-05 13:03 42.03988 -70.32966 33985 ft 461 kts 238°
2026-05-05 13:03 42.00488 -70.40188 33980 ft 461 kts 238°
2026-05-05 13:04 41.96977 -70.47414 33974 ft 461 kts 238°
2026-05-05 13:04 41.93465 -70.54627 34000 ft 461 kts 237°
2026-05-05 13:05 41.89975 -70.61773 33986 ft 460 kts 237°
2026-05-05 13:05 41.86463 -70.68951 33985 ft 460 kts 237°
2026-05-05 13:06 41.82228 -70.75355 34002 ft 463 kts 219°
2026-05-05 13:06 41.76801 -70.79807 33991 ft 464 kts 211°
2026-05-05 13:07 41.71159 -70.84028 34011 ft 464 kts 211°
2026-05-05 13:07 41.65553 -70.88233 34017 ft 464 kts 211°
2026-05-05 13:08 41.59914 -70.92448 34001 ft 464 kts 210°
2026-05-05 13:08 41.54633 -70.97337 34021 ft 462 kts 226°
2026-05-05 13:09 41.50744 -71.04134 34015 ft 461 kts 236°
2026-05-05 13:09 41.47177 -71.11264 34021 ft 461 kts 237°
2026-05-05 13:10 41.43627 -71.18338 34016 ft 462 kts 236°
2026-05-05 13:10 41.40037 -71.25468 34022 ft 462 kts 236°
2026-05-05 13:11 41.36451 -71.32583 34030 ft 462 kts 236°
2026-05-05 13:11 41.32856 -71.39701 34037 ft 462 kts 236°
2026-05-05 13:12 41.29285 -71.46762 34041 ft 462 kts 236°
2026-05-05 13:12 41.25678 -71.53872 34049 ft 462 kts 236°
2026-05-05 13:13 41.22074 -71.60965 34051 ft 463 kts 236°
2026-05-05 13:13 41.18487 -71.68005 34047 ft 463 kts 236°
2026-05-05 13:14 41.14921 -71.74990 34044 ft 463 kts 236°
2026-05-05 13:14 41.11302 -71.82104 34035 ft 464 kts 236°
2026-05-05 13:15 41.07714 -71.89159 34033 ft 464 kts 236°
2026-05-05 13:15 41.04097 -71.96248 34040 ft 464 kts 237°
2026-05-05 13:16 41.01200 -72.03881 34039 ft 464 kts 245°
2026-05-05 13:16 40.98479 -72.11637 34028 ft 464 kts 245°
2026-05-05 13:17 40.95748 -72.19344 34023 ft 464 kts 245°
2026-05-05 13:17 40.93007 -72.27085 34030 ft 464 kts 244°
2026-05-05 13:18 40.89403 -72.33996 34040 ft 465 kts 225°
2026-05-05 13:18 40.84810 -72.40025 34029 ft 465 kts 225°
2026-05-05 13:19 40.80222 -72.45977 34034 ft 466 kts 223°
2026-05-05 13:19 40.75224 -72.51448 34035 ft 466 kts 220°
2026-05-05 13:20 40.70203 -72.56898 34031 ft 467 kts 220°
2026-05-05 13:20 40.65329 -72.62464 34029 ft 466 kts 221°
2026-05-05 13:21 40.60414 -72.68054 34025 ft 467 kts 222°
2026-05-05 13:21 40.55532 -72.73690 34026 ft 467 kts 221°
2026-05-05 13:22 40.50625 -72.79292 34029 ft 467 kts 221°
2026-05-05 13:22 40.45728 -72.84898 34020 ft 467 kts 221°
2026-05-05 13:23 40.40852 -72.90454 34025 ft 467 kts 221°
2026-05-05 13:23 40.36007 -72.95972 34025 ft 467 kts 221°
2026-05-05 13:24 40.31096 -73.01549 34026 ft 466 kts 221°
2026-05-05 13:24 40.26191 -73.07111 34021 ft 465 kts 221°
2026-05-05 13:25 40.21333 -73.12608 34017 ft 464 kts 221°
2026-05-05 13:25 40.16451 -73.18121 34017 ft 464 kts 221°
2026-05-05 13:26 40.11566 -73.23627 34006 ft 464 kts 221°
2026-05-05 13:26 40.06682 -73.29118 34019 ft 463 kts 221°
2026-05-05 13:27 40.01786 -73.34601 34030 ft 463 kts 221°
2026-05-05 13:27 39.96889 -73.40079 34026 ft 463 kts 221°
2026-05-05 13:28 39.91998 -73.45538 34018 ft 463 kts 221°
2026-05-05 13:28 39.87175 -73.50911 34025 ft 463 kts 221°
2026-05-05 13:29 39.82313 -73.56321 34025 ft 463 kts 221°
2026-05-05 13:29 39.77417 -73.61777 34028 ft 462 kts 221°
2026-05-05 13:30 39.72513 -73.67221 34030 ft 463 kts 221°
2026-05-05 13:30 39.67613 -73.72655 34031 ft 463 kts 221°
2026-05-05 13:31 39.62740 -73.78047 34030 ft 463 kts 221°
2026-05-05 13:31 39.57838 -73.83460 34030 ft 463 kts 221°
2026-05-05 13:32 39.52926 -73.88874 34028 ft 462 kts 221°
2026-05-05 13:32 39.48020 -73.94272 34028 ft 462 kts 221°
2026-05-05 13:33 39.43139 -73.99632 34036 ft 462 kts 221°
2026-05-05 13:33 39.38224 -74.05016 34039 ft 462 kts 221°
2026-05-05 13:34 39.33308 -74.10384 34030 ft 463 kts 221°
2026-05-05 13:34 39.28463 -74.15670 34036 ft 463 kts 221°
2026-05-05 13:35 39.23542 -74.21025 34036 ft 463 kts 221°
2026-05-05 13:35 39.18649 -74.26341 34035 ft 463 kts 221°